time, Switch, Flow(0), Analog(2)
yyyy/mm/dd HH:MM:SS.fff, True=FILTERED|False=TOTAL, L/min, V
2023/07/01 01:00:00.668, True, 4.036, 0.135653
2023/07/01 01:00:01.172, True, 4.311, 0.135576
2023/07/01 01:00:01.668, True, 4.380, 0.132677
2023/07/01 01:00:02.172, True, 4.311, 0.134966
2023/07/01 01:00:02.675, True, 4.317, 0.133974
2023/07/01 01:00:03.172, True, 4.037, 0.135805
2023/07/01 01:00:03.676, True, 3.648, 0.135119
2023/07/01 01:00:04.180, True, 2.321, 0.132906
2023/07/01 01:00:04.676, True, 1.685, 0.132448
2023/07/01 01:00:05.180, True, 0.995, 0.134203
2023/07/01 01:00:05.683, True, 0.995, 0.134279
2023/07/01 01:00:06.180, True, 1.011, 0.134585
2023/07/01 01:00:06.684, True, 1.326, 0.136263
2023/07/01 01:00:07.188, True, 0.996, 0.136110
2023/07/01 01:00:07.684, True, 1.010, 0.135729
2023/07/01 01:00:08.188, True, 0.995, 0.131456
2023/07/01 01:00:08.691, True, 0.995, 0.132830
2023/07/01 01:00:09.188, True, 0.675, 0.134432
2023/07/01 01:00:09.692, True, 0.994, 0.133135
2023/07/01 01:00:10.195, True, 0.995, 0.135195
2023/07/01 01:00:10.691, True, 1.011, 0.137026
2023/07/01 01:00:11.196, True, 0.995, 0.134127
2023/07/01 01:00:11.700, True, 0.995, 0.135729
2023/07/01 01:00:12.196, True, 1.011, 0.134356
2023/07/01 01:00:12.700, True, 0.996, 0.135653
2023/07/01 01:00:13.204, True, 0.994, 0.134051
2023/07/01 01:00:13.700, True, 1.010, 0.134508
2023/07/01 01:00:14.204, True, 0.995, 0.132372
2023/07/01 01:00:14.708, True, 0.995, 0.133059
2023/07/01 01:00:15.204, True, 1.348, 0.135958
2023/07/01 01:00:15.708, True, 0.996, 0.134051
2023/07/01 01:00:16.212, True, 0.993, 0.133516
2023/07/01 01:00:16.708, True, 1.011, 0.134203
2023/07/01 01:00:17.212, True, 0.995, 0.135042
2023/07/01 01:00:17.708, True, 0.674, 0.135042
2023/07/01 01:00:18.212, True, 0.995, 0.133745
2023/07/01 01:00:18.716, True, 0.996, 0.133669
2023/07/01 01:00:19.212, True, 1.010, 0.135576
2023/07/01 01:00:19.716, True, 0.995, 0.134356
2023/07/01 01:00:20.220, True, 0.996, 0.136034
2023/07/01 01:00:20.724, True, 1.325, 0.133593
2023/07/01 01:00:21.220, True, 1.012, 0.131380
2023/07/01 01:00:21.724, True, 0.994, 0.134279
2023/07/01 01:00:22.228, True, 0.994, 0.133288
2023/07/01 01:00:22.724, True, 1.010, 0.133745
2023/07/01 01:00:23.227, True, 0.997, 0.134051
2023/07/01 01:00:23.732, True, 0.995, 0.134432
2023/07/01 01:00:24.228, True, 1.011, 0.132830
2023/07/01 01:00:24.732, True, 0.993, 0.134966
2023/07/01 01:00:25.235, True, 1.329, 0.137407
2023/07/01 01:00:25.732, True, 1.011, 0.135805
2023/07/01 01:00:26.236, True, 0.993, 0.136034
2023/07/01 01:00:26.740, True, 0.995, 0.134890
2023/07/01 01:00:27.244, True, 0.995, 0.134737
2023/07/01 01:00:27.740, True, 1.011, 0.133364
2023/07/01 01:00:28.244, True, 0.996, 0.134432
2023/07/01 01:00:28.748, True, 0.993, 0.134813
2023/07/01 01:00:29.244, True, 0.674, 0.134661
2023/07/01 01:00:29.748, True, 1.327, 0.134966
2023/07/01 01:00:30.252, True, 0.995, 0.132677
2023/07/01 01:00:30.747, True, 0.675, 0.135576
2023/07/01 01:00:31.252, True, 1.324, 0.133669
2023/07/01 01:00:31.756, True, 0.995, 0.134585
2023/07/01 01:00:32.252, True, 0.674, 0.136263
2023/07/01 01:00:32.756, True, 0.995, 0.135729
2023/07/01 01:00:33.260, True, 0.995, 0.134966
2023/07/01 01:00:33.756, True, 1.012, 0.135119
2023/07/01 01:00:34.260, True, 0.993, 0.135195
2023/07/01 01:00:34.756, True, 1.013, 0.134127
2023/07/01 01:00:35.260, True, 0.995, 0.133822
2023/07/01 01:00:35.764, True, 0.993, 0.133974
2023/07/01 01:00:36.260, True, 1.011, 0.134813
2023/07/01 01:00:36.764, True, 0.995, 0.134508
2023/07/01 01:00:37.268, True, 0.995, 0.133288
2023/07/01 01:00:37.764, True, 1.011, 0.134890
2023/07/01 01:00:38.268, True, 0.995, 0.135271
2023/07/01 01:00:38.772, True, 0.995, 0.135348
2023/07/01 01:00:39.276, True, 0.995, 0.134661
2023/07/01 01:00:39.772, True, 1.011, 0.131380
2023/07/01 01:00:40.276, True, 0.663, 0.134432
2023/07/01 01:00:40.780, True, 0.995, 0.134051
2023/07/01 01:00:41.276, True, 1.010, 0.133974
2023/07/01 01:00:41.780, True, 0.995, 0.138552
2023/07/01 01:00:42.284, True, 0.995, 0.137331
2023/07/01 01:00:42.780, True, 1.011, 0.135042
2023/07/01 01:00:43.284, True, 1.326, 0.136263
2023/07/01 01:00:43.780, True, 1.011, 0.135958
2023/07/01 01:00:44.284, True, 0.995, 0.132372
2023/07/01 01:00:44.788, True, 0.663, 0.132677
2023/07/01 01:00:45.284, True, 1.011, 0.136873
2023/07/01 01:00:45.788, True, 0.995, 0.133898
2023/07/01 01:00:46.292, True, 0.663, 0.133593
2023/07/01 01:00:46.796, True, 0.995, 0.133898
2023/07/01 01:00:47.292, True, 1.011, 0.132296
2023/07/01 01:00:47.796, True, 0.995, 0.134051
2023/07/01 01:00:48.300, True, 0.995, 0.133516
2023/07/01 01:00:48.796, True, 1.011, 0.134585
2023/07/01 01:00:49.300, True, 0.995, 0.135805
2023/07/01 01:00:49.796, True, 1.011, 0.135195
2023/07/01 01:00:50.300, True, 0.996, 0.134203
2023/07/01 01:00:50.804, True, 0.993, 0.132906
2023/07/01 01:00:51.300, True, 1.011, 0.133440
2023/07/01 01:00:51.804, True, 0.995, 0.133974
2023/07/01 01:00:52.308, True, 0.995, 0.134737
2023/07/01 01:00:52.804, True, 1.011, 0.133974
2023/07/01 01:00:53.308, True, 0.995, 0.134890
2023/07/01 01:00:53.812, True, 0.995, 0.133516
2023/07/01 01:00:54.316, True, 0.995, 0.136645
2023/07/01 01:00:54.812, True, 1.011, 0.136110
2023/07/01 01:00:55.316, True, 0.995, 0.135882
2023/07/01 01:00:55.820, True, 0.995, 0.136110
2023/07/01 01:00:56.316, True, 1.011, 0.136721
2023/07/01 01:00:56.820, True, 0.995, 0.133669
2023/07/01 01:00:57.324, True, 0.995, 0.134585
2023/07/01 01:00:57.820, True, 1.011, 0.136797
2023/07/01 01:00:58.324, True, 0.995, 0.133974
2023/07/01 01:00:58.828, True, 0.995, 0.136797
2023/07/01 01:00:59.324, True, 1.011, 0.137636
2023/07/01 01:00:59.828, True, 0.995, 0.134356
2023/07/01 01:01:00.332, True, 0.995, 0.138628
2023/07/01 01:01:00.828, True, 0.674, 0.137102
2023/07/01 01:01:01.332, True, 1.327, 0.140002
2023/07/01 01:01:01.836, True, 0.663, 0.137026
2023/07/01 01:01:02.332, True, 1.011, 0.138323
2023/07/01 01:01:02.836, True, 0.995, 0.137713
2023/07/01 01:01:03.340, True, 1.326, 0.137102
2023/07/01 01:01:03.836, True, 0.674, 0.136721
2023/07/01 01:01:04.339, True, 0.995, 0.137560
2023/07/01 01:01:04.844, True, 0.995, 0.139315
2023/07/01 01:01:05.348, True, 0.994, 0.139391
2023/07/01 01:01:05.844, True, 1.010, 0.137865
2023/07/01 01:01:06.348, True, 0.995, 0.138552
2023/07/01 01:01:06.852, True, 0.996, 0.141146
2023/07/01 01:01:07.348, True, 1.011, 0.137636
2023/07/01 01:01:07.852, True, 0.995, 0.138781
2023/07/01 01:01:08.356, True, 0.995, 0.137713
2023/07/01 01:01:08.852, True, 1.010, 0.140383
2023/07/01 01:01:09.356, True, 0.994, 0.139010
2023/07/01 01:01:09.860, True, 0.996, 0.140307
2023/07/01 01:01:10.356, True, 1.011, 0.136950
2023/07/01 01:01:10.860, True, 0.994, 0.139239
2023/07/01 01:01:11.364, True, 0.995, 0.135653
2023/07/01 01:01:11.860, True, 0.674, 0.138628
2023/07/01 01:01:12.364, True, 0.993, 0.139239
2023/07/01 01:01:12.868, True, 0.995, 0.140078
2023/07/01 01:01:13.364, True, 1.011, 0.140230
2023/07/01 01:01:13.867, True, 0.996, 0.139467
2023/07/01 01:01:14.372, True, 0.994, 0.137407
2023/07/01 01:01:14.868, True, 1.010, 0.140383
2023/07/01 01:01:15.371, True, 0.995, 0.138476
2023/07/01 01:01:15.876, True, 0.995, 0.138323
2023/07/01 01:01:16.372, True, 1.348, 0.140612
2023/07/01 01:01:16.876, True, 0.663, 0.140078
2023/07/01 01:01:17.380, True, 0.995, 0.137636
2023/07/01 01:01:17.876, True, 1.011, 0.139162
2023/07/01 01:01:18.380, True, 0.995, 0.140993
2023/07/01 01:01:18.884, True, 0.995, 0.140536
2023/07/01 01:01:19.380, True, 1.011, 0.140536
2023/07/01 01:01:19.884, True, 0.995, 0.140459
2023/07/01 01:01:20.388, True, 0.663, 0.140764
2023/07/01 01:01:20.883, True, 1.012, 0.142367
2023/07/01 01:01:21.388, True, 0.994, 0.140764
2023/07/01 01:01:21.892, True, 0.995, 0.139620
2023/07/01 01:01:22.388, True, 1.011, 0.140078
2023/07/01 01:01:22.892, True, 0.996, 0.138094
2023/07/01 01:01:23.396, True, 0.994, 0.140154
2023/07/01 01:01:23.892, True, 1.011, 0.139467
2023/07/01 01:01:24.396, True, 0.994, 0.140688
2023/07/01 01:01:24.900, True, 0.995, 0.139239
2023/07/01 01:01:25.396, True, 1.011, 0.141604
2023/07/01 01:01:25.900, True, 0.995, 0.139849
2023/07/01 01:01:26.404, True, 0.995, 0.140078
2023/07/01 01:01:26.900, True, 1.011, 0.140536
2023/07/01 01:01:27.404, True, 0.995, 0.140078
2023/07/01 01:01:27.908, True, 0.994, 0.140459
2023/07/01 01:01:28.404, True, 1.011, 0.138705
2023/07/01 01:01:28.908, True, 0.995, 0.140917
2023/07/01 01:01:29.412, True, 0.994, 0.138857
2023/07/01 01:01:29.907, True, 1.011, 0.140002
2023/07/01 01:01:30.412, True, 0.663, 0.139162
2023/07/01 01:01:30.916, True, 0.995, 0.140078
2023/07/01 01:01:31.412, True, 1.011, 0.139620
2023/07/01 01:01:31.916, True, 0.995, 0.140002
2023/07/01 01:01:32.420, True, 0.995, 0.140307
2023/07/01 01:01:32.924, True, 0.995, 0.140612
2023/07/01 01:01:33.420, True, 1.011, 0.139696
2023/07/01 01:01:33.924, True, 0.995, 0.140993
2023/07/01 01:01:34.428, True, 0.995, 0.142672
2023/07/01 01:01:34.924, True, 1.010, 0.140078
2023/07/01 01:01:35.428, True, 0.995, 0.142290
2023/07/01 01:01:35.924, True, 1.011, 0.143359
2023/07/01 01:01:36.428, True, 0.995, 0.140230
2023/07/01 01:01:36.932, True, 0.995, 0.141375
2023/07/01 01:01:37.428, True, 1.011, 0.140383
2023/07/01 01:01:37.931, True, 0.995, 0.141375
2023/07/01 01:01:38.436, True, 0.995, 0.140459
2023/07/01 01:01:38.932, True, 1.011, 0.140078
2023/07/01 01:01:39.436, True, 0.995, 0.141833
2023/07/01 01:01:39.940, True, 1.326, 0.141527
2023/07/01 01:01:40.436, True, 1.011, 0.142138
2023/07/01 01:01:40.940, True, 0.995, 0.141299
2023/07/01 01:01:41.444, True, 0.664, 0.139620
2023/07/01 01:01:41.940, True, 1.009, 0.141833
2023/07/01 01:01:42.444, True, 0.995, 0.140764
2023/07/01 01:01:42.940, True, 1.011, 0.140764
2023/07/01 01:01:43.444, True, 0.995, 0.141375
2023/07/01 01:01:43.948, True, 0.997, 0.142824
2023/07/01 01:01:44.452, True, 0.994, 0.142443
2023/07/01 01:01:44.948, True, 1.011, 0.144121
2023/07/01 01:01:45.451, True, 0.996, 0.140078
2023/07/01 01:01:45.956, True, 0.663, 0.139849
2023/07/01 01:01:46.452, True, 1.009, 0.142138
2023/07/01 01:01:46.956, True, 0.995, 0.142061
2023/07/01 01:01:47.460, True, 0.996, 0.139773
2023/07/01 01:01:47.956, True, 1.011, 0.139773
2023/07/01 01:01:48.460, True, 0.993, 0.139162
2023/07/01 01:01:48.963, True, 0.664, 0.142061
2023/07/01 01:01:49.468, True, 0.995, 0.142138
2023/07/01 01:01:49.963, True, 1.011, 0.142138
2023/07/01 01:01:50.468, True, 0.995, 0.143435
2023/07/01 01:01:50.972, True, 0.995, 0.142748
2023/07/01 01:01:51.468, True, 1.011, 0.140841
2023/07/01 01:01:51.972, True, 0.994, 0.141299
2023/07/01 01:01:52.476, True, 0.996, 0.141375
2023/07/01 01:01:52.972, True, 1.011, 0.143130
2023/07/01 01:01:53.476, True, 0.993, 0.142443
2023/07/01 01:01:53.980, True, 1.326, 0.141909
2023/07/01 01:01:54.484, True, 0.663, 0.141985
2023/07/01 01:01:54.980, True, 1.011, 0.143359
2023/07/01 01:01:55.484, True, 0.995, 0.140612
2023/07/01 01:01:55.980, True, 1.011, 0.142367
2023/07/01 01:01:56.484, True, 0.996, 0.141909
2023/07/01 01:01:56.988, True, 0.994, 0.140002
2023/07/01 01:01:57.484, True, 1.010, 0.141756
2023/07/01 01:01:57.988, True, 0.995, 0.141146
2023/07/01 01:01:58.492, True, 0.995, 0.142290
2023/07/01 01:01:58.988, True, 1.011, 0.140764
2023/07/01 01:01:59.492, True, 0.995, 0.140536
2023/07/01 01:01:59.996, True, 0.995, 0.141146
2023/07/01 01:02:00.500, True, 0.995, 0.141833
2023/07/01 01:02:00.996, True, 0.674, 0.141222
2023/07/01 01:02:01.500, True, 0.995, 0.141146
2023/07/01 01:02:02.004, True, 0.995, 0.142672
2023/07/01 01:02:02.500, True, 1.011, 0.140536
2023/07/01 01:02:03.004, True, 0.995, 0.142748
2023/07/01 01:02:03.508, True, 0.995, 0.142443
2023/07/01 01:02:04.004, True, 0.674, 0.143587
2023/07/01 01:02:04.508, True, 0.997, 0.139925
2023/07/01 01:02:05.012, True, 0.993, 0.143282
2023/07/01 01:02:05.508, True, 1.348, 0.141146
2023/07/01 01:02:06.012, True, 0.995, 0.142367
2023/07/01 01:02:06.516, True, 0.995, 0.140841
2023/07/01 01:02:07.012, True, 1.012, 0.140612
2023/07/01 01:02:07.516, True, 0.994, 0.140841
2023/07/01 01:02:08.012, True, 1.011, 0.139773
2023/07/01 01:02:08.516, True, 0.995, 0.140307
2023/07/01 01:02:09.020, True, 0.995, 0.140536
2023/07/01 01:02:09.516, True, 1.011, 0.140917
2023/07/01 01:02:10.020, True, 0.995, 0.140383
2023/07/01 01:02:10.524, True, 0.995, 0.143359
2023/07/01 01:02:11.020, True, 0.674, 0.141680
2023/07/01 01:02:11.524, True, 0.995, 0.141756
2023/07/01 01:02:12.028, True, 0.995, 0.141451
2023/07/01 01:02:12.524, True, 1.011, 0.142061
2023/07/01 01:02:13.028, True, 0.995, 0.141451
2023/07/01 01:02:13.532, True, 0.995, 0.141222
2023/07/01 01:02:14.028, True, 1.011, 0.141985
2023/07/01 01:02:14.532, True, 1.326, 0.140688
2023/07/01 01:02:15.036, True, 0.995, 0.141756
2023/07/01 01:02:15.532, True, 1.011, 0.139849
2023/07/01 01:02:16.036, True, 0.995, 0.144503
2023/07/01 01:02:16.540, True, 0.995, 0.143053
2023/07/01 01:02:17.036, True, 1.011, 0.139773
2023/07/01 01:02:17.540, True, 0.995, 0.142824
2023/07/01 01:02:18.036, True, 1.011, 0.141299
2023/07/01 01:02:18.540, True, 0.995, 0.143664
2023/07/01 01:02:19.044, True, 0.995, 0.141833
2023/07/01 01:02:19.540, True, 0.674, 0.141527
2023/07/01 01:02:20.044, True, 0.995, 0.139773
2023/07/01 01:02:20.548, True, 1.326, 0.141833
2023/07/01 01:02:21.044, True, 1.011, 0.140536
2023/07/01 01:02:21.548, True, 0.663, 0.141680
2023/07/01 01:02:22.052, True, 0.995, 0.141375
2023/07/01 01:02:22.548, True, 1.011, 0.139696
2023/07/01 01:02:23.052, True, 0.995, 0.142824
2023/07/01 01:02:23.556, True, 0.995, 0.142138
2023/07/01 01:02:24.052, True, 1.011, 0.140536
2023/07/01 01:02:24.556, True, 0.995, 0.141375
2023/07/01 01:02:25.060, True, 0.663, 0.140459
2023/07/01 01:02:25.556, True, 1.013, 0.143206
2023/07/01 01:02:26.060, True, 0.993, 0.141527
2023/07/01 01:02:26.564, True, 0.995, 0.140154
2023/07/01 01:02:27.060, True, 1.011, 0.143969
2023/07/01 01:02:27.564, True, 0.995, 0.140536
2023/07/01 01:02:28.068, True, 0.995, 0.142214
2023/07/01 01:02:28.564, True, 1.011, 0.142367
2023/07/01 01:02:29.068, True, 0.995, 0.142672
2023/07/01 01:02:29.572, True, 0.995, 0.141756
2023/07/01 01:02:30.068, True, 1.011, 0.142596
2023/07/01 01:02:30.572, True, 0.995, 0.141070
2023/07/01 01:02:31.076, True, 0.663, 0.141299
2023/07/01 01:02:31.571, True, 1.011, 0.141680
2023/07/01 01:02:32.076, True, 0.994, 0.139696
2023/07/01 01:02:32.580, True, 0.995, 0.142519
2023/07/01 01:02:33.076, True, 1.011, 0.142901
2023/07/01 01:02:33.580, True, 0.663, 0.140612
2023/07/01 01:02:34.084, True, 1.326, 0.140764
2023/07/01 01:02:34.580, True, 1.012, 0.140459
2023/07/01 01:02:35.084, True, 0.662, 0.140154
2023/07/01 01:02:35.580, True, 1.011, 0.140841
2023/07/01 01:02:36.084, True, 1.326, 0.142290
2023/07/01 01:02:36.588, True, 0.995, 0.141451
2023/07/01 01:02:37.084, True, 1.011, 0.144808
2023/07/01 01:02:37.588, True, 0.663, 0.140230
2023/07/01 01:02:38.092, True, 0.995, 0.140764
2023/07/01 01:02:38.588, True, 1.011, 0.143206
2023/07/01 01:02:39.092, True, 0.995, 0.140841
2023/07/01 01:02:39.596, True, 0.995, 0.141299
2023/07/01 01:02:40.092, True, 1.011, 0.140993
2023/07/01 01:02:40.596, True, 0.994, 0.140688
2023/07/01 01:02:41.100, True, 0.995, 0.140917
2023/07/01 01:02:41.596, True, 1.011, 0.142367
2023/07/01 01:02:42.100, True, 0.995, 0.142672
2023/07/01 01:02:42.604, True, 0.995, 0.142214
2023/07/01 01:02:43.100, True, 0.674, 0.141604
2023/07/01 01:02:43.604, True, 0.995, 0.140688
2023/07/01 01:02:44.108, True, 0.995, 0.142367
2023/07/01 01:02:44.604, True, 1.011, 0.140002
2023/07/01 01:02:45.108, True, 0.995, 0.140764
2023/07/01 01:02:45.612, True, 0.995, 0.140307
2023/07/01 01:02:46.108, True, 0.674, 0.140230
2023/07/01 01:02:46.612, True, 0.995, 0.141299
2023/07/01 01:02:47.116, True, 0.995, 0.139467
2023/07/01 01:02:47.612, True, 1.011, 0.138552
2023/07/01 01:02:48.116, True, 0.995, 0.141985
2023/07/01 01:02:48.619, True, 0.995, 0.140230
2023/07/01 01:02:49.116, True, 1.011, 0.137713
2023/07/01 01:02:49.620, True, 0.995, 0.138781
2023/07/01 01:02:50.116, True, 1.347, 0.142290
2023/07/01 01:02:50.620, True, 0.995, 0.143206
2023/07/01 01:02:51.124, True, 0.995, 0.138628
2023/07/01 01:02:51.628, True, 0.995, 0.140383
2023/07/01 01:02:52.124, True, 1.012, 0.139391
2023/07/01 01:02:52.628, True, 0.994, 0.140917
2023/07/01 01:02:53.124, True, 1.011, 0.141604
2023/07/01 01:02:53.628, True, 0.995, 0.140230
2023/07/01 01:02:54.132, True, 0.995, 0.142290
2023/07/01 01:02:54.636, True, 0.995, 0.140536
2023/07/01 01:02:55.132, True, 1.011, 0.141909
2023/07/01 01:02:55.636, True, 0.996, 0.139773
2023/07/01 01:02:56.140, True, 0.994, 0.140764
2023/07/01 01:02:56.636, True, 1.013, 0.141299
2023/07/01 01:02:57.140, True, 0.993, 0.139010
2023/07/01 01:02:57.644, True, 0.995, 0.138781
2023/07/01 01:02:58.140, True, 1.011, 0.138933
2023/07/01 01:02:58.644, True, 0.995, 0.139696
2023/07/01 01:02:59.148, True, 0.996, 0.144121
2023/07/01 01:02:59.644, True, 1.011, 0.142214
2023/07/01 01:03:00.148, True, 0.993, 0.140002
2023/07/01 01:03:00.652, True, 0.995, 0.142596
2023/07/01 01:03:01.148, True, 1.011, 0.139925
2023/07/01 01:03:01.652, True, 0.995, 0.140459
2023/07/01 01:03:02.148, True, 1.011, 0.140841
2023/07/01 01:03:02.652, True, 0.995, 0.139315
2023/07/01 01:03:03.156, True, 0.995, 0.140307
2023/07/01 01:03:03.652, True, 1.011, 0.141222
2023/07/01 01:03:04.156, True, 0.995, 0.141527
2023/07/01 01:03:04.660, True, 0.995, 0.142519
2023/07/01 01:03:05.156, True, 1.011, 0.141146
2023/07/01 01:03:05.660, True, 0.995, 0.141451
2023/07/01 01:03:06.164, True, 0.995, 0.139239
2023/07/01 01:03:06.660, True, 1.011, 0.141146
2023/07/01 01:03:07.164, True, 0.995, 0.140688
2023/07/01 01:03:07.668, True, 0.995, 0.140307
2023/07/01 01:03:08.164, True, 1.011, 0.139773
2023/07/01 01:03:08.668, True, 0.994, 0.139925
2023/07/01 01:03:09.164, True, 1.011, 0.139010
2023/07/01 01:03:09.668, True, 0.995, 0.140078
2023/07/01 01:03:10.172, True, 0.994, 0.139162
2023/07/01 01:03:10.668, True, 1.011, 0.141375
2023/07/01 01:03:11.172, True, 0.995, 0.140764
2023/07/01 01:03:11.676, True, 0.995, 0.140383
2023/07/01 01:03:12.172, True, 0.674, 0.141299
2023/07/01 01:03:12.676, True, 1.326, 0.139315
2023/07/01 01:03:13.180, True, 0.995, 0.139467
2023/07/01 01:03:13.676, True, 0.674, 0.141070
2023/07/01 01:03:14.180, True, 1.326, 0.140764
2023/07/01 01:03:14.684, True, 0.995, 0.138705
2023/07/01 01:03:15.180, True, 1.011, 0.140536
2023/07/01 01:03:15.684, True, 0.995, 0.139925
2023/07/01 01:03:16.188, True, 0.995, 0.140002
2023/07/01 01:03:16.684, True, 1.011, 0.140536
2023/07/01 01:03:17.188, True, 0.995, 0.140764
2023/07/01 01:03:17.692, True, 0.663, 0.140536
2023/07/01 01:03:18.188, True, 1.011, 0.139467
2023/07/01 01:03:18.692, True, 0.994, 0.139467
2023/07/01 01:03:19.188, True, 1.012, 0.141604
2023/07/01 01:03:19.692, True, 0.994, 0.140230
2023/07/01 01:03:20.195, True, 0.994, 0.139696
2023/07/01 01:03:20.700, True, 1.327, 0.139086
2023/07/01 01:03:21.196, True, 1.011, 0.141451
2023/07/01 01:03:21.700, True, 0.994, 0.141070
2023/07/01 01:03:22.204, True, 0.996, 0.140688
2023/07/01 01:03:22.700, True, 1.011, 0.139544
2023/07/01 01:03:23.204, True, 0.994, 0.139544
2023/07/01 01:03:23.700, True, 0.674, 0.140002
2023/07/01 01:03:24.204, True, 0.996, 0.139467
2023/07/01 01:03:24.708, True, 0.994, 0.139391
2023/07/01 01:03:25.212, True, 0.996, 0.139239
2023/07/01 01:03:25.708, True, 1.010, 0.140536
2023/07/01 01:03:26.212, True, 0.996, 0.140612
2023/07/01 01:03:26.708, True, 1.011, 0.138933
2023/07/01 01:03:27.212, True, 0.995, 0.139162
2023/07/01 01:03:27.716, True, 0.995, 0.138857
2023/07/01 01:03:28.211, True, 1.011, 0.140002
2023/07/01 01:03:28.716, True, 0.995, 0.141070
2023/07/01 01:03:29.220, True, 0.995, 0.138628
2023/07/01 01:03:29.716, True, 1.011, 0.141070
2023/07/01 01:03:30.220, True, 0.995, 0.140002
2023/07/01 01:03:30.724, True, 0.995, 0.142214
2023/07/01 01:03:31.220, True, 1.011, 0.140612
2023/07/01 01:03:31.724, True, 0.995, 0.139315
2023/07/01 01:03:32.228, True, 0.993, 0.138781
2023/07/01 01:03:32.732, True, 1.327, 0.140230
2023/07/01 01:03:33.228, True, 1.011, 0.139391
2023/07/01 01:03:33.732, True, 0.995, 0.140764
2023/07/01 01:03:34.236, True, 0.995, 0.140154
2023/07/01 01:03:34.732, True, 1.011, 0.141299
2023/07/01 01:03:35.236, True, 0.663, 0.140688
2023/07/01 01:03:35.740, True, 0.995, 0.139315
2023/07/01 01:03:36.236, True, 1.010, 0.140688
2023/07/01 01:03:36.740, True, 0.995, 0.140612
2023/07/01 01:03:37.244, True, 0.995, 0.141222
2023/07/01 01:03:37.748, True, 0.995, 0.140688
2023/07/01 01:03:38.244, True, 1.011, 0.140230
2023/07/01 01:03:38.748, True, 0.995, 0.140841
2023/07/01 01:03:39.252, True, 0.995, 0.138857
2023/07/01 01:03:39.748, True, 0.674, 0.140688
2023/07/01 01:03:40.252, True, 0.995, 0.137942
2023/07/01 01:03:40.756, True, 0.995, 0.139467
2023/07/01 01:03:41.252, True, 1.011, 0.139010
2023/07/01 01:03:41.756, True, 0.995, 0.139696
2023/07/01 01:03:42.260, True, 0.996, 0.139620
2023/07/01 01:03:42.756, True, 1.009, 0.138705
2023/07/01 01:03:43.260, True, 0.995, 0.140536
2023/07/01 01:03:43.756, True, 1.011, 0.139086
2023/07/01 01:03:44.260, True, 0.995, 0.139544
2023/07/01 01:03:44.764, True, 0.995, 0.137484
2023/07/01 01:03:45.268, True, 0.663, 0.141070
2023/07/01 01:03:45.764, True, 1.011, 0.139391
2023/07/01 01:03:46.268, True, 0.995, 0.140536
2023/07/01 01:03:46.764, True, 1.011, 0.139773
2023/07/01 01:03:47.268, True, 0.995, 0.140383
2023/07/01 01:03:47.772, True, 0.995, 0.140459
2023/07/01 01:03:48.268, True, 1.011, 0.139315
2023/07/01 01:03:48.772, True, 0.995, 0.140688
2023/07/01 01:03:49.276, True, 0.995, 0.142138
2023/07/01 01:03:49.772, True, 1.010, 0.140688
2023/07/01 01:03:50.276, True, 0.995, 0.140307
2023/07/01 01:03:50.780, True, 0.995, 0.140078
2023/07/01 01:03:51.276, True, 1.011, 0.140307
2023/07/01 01:03:51.780, True, 0.995, 0.138247
2023/07/01 01:03:52.276, True, 1.011, 0.138247
2023/07/01 01:03:52.780, True, 0.995, 0.140078
2023/07/01 01:03:53.284, True, 0.995, 0.139467
2023/07/01 01:03:53.780, True, 1.011, 0.140536
2023/07/01 01:03:54.284, True, 0.995, 0.143130
2023/07/01 01:03:54.788, True, 0.995, 0.142290
2023/07/01 01:03:55.284, True, 1.011, 0.138476
2023/07/01 01:03:55.788, True, 0.995, 0.140459
2023/07/01 01:03:56.292, True, 0.995, 0.139696
2023/07/01 01:03:56.788, True, 0.674, 0.140078
2023/07/01 01:03:57.292, True, 0.994, 0.140459
2023/07/01 01:03:57.796, True, 0.995, 0.140993
2023/07/01 01:03:58.292, True, 1.011, 0.139849
2023/07/01 01:03:58.796, True, 0.995, 0.141222
2023/07/01 01:03:59.300, True, 0.995, 0.138933
2023/07/01 01:03:59.796, True, 1.012, 0.138170
2023/07/01 01:04:00.300, True, 0.993, 0.140002
2023/07/01 01:04:00.804, True, 0.995, 0.139696
2023/07/01 01:04:01.300, True, 1.011, 0.139544
2023/07/01 01:04:01.804, True, 0.995, 0.138552
2023/07/01 01:04:02.308, True, 0.995, 0.139239
2023/07/01 01:04:02.804, True, 1.011, 0.141604
2023/07/01 01:04:03.308, True, 0.997, 0.141527
2023/07/01 01:04:03.812, True, 0.993, 0.139391
2023/07/01 01:04:04.308, True, 1.011, 0.139544
2023/07/01 01:04:04.812, True, 0.663, 0.140078
2023/07/01 01:04:05.316, True, 0.995, 0.140459
2023/07/01 01:04:05.812, True, 1.011, 0.138247
2023/07/01 01:04:06.316, True, 0.995, 0.140383
2023/07/01 01:04:06.820, True, 0.995, 0.140688
2023/07/01 01:04:07.316, True, 1.011, 0.139315
2023/07/01 01:04:07.820, True, 0.995, 0.138857
2023/07/01 01:04:08.324, True, 0.995, 0.139467
2023/07/01 01:04:08.820, True, 0.674, 0.140307
2023/07/01 01:04:09.324, True, 0.995, 0.139773
2023/07/01 01:04:09.820, True, 1.011, 0.140993